Date String (YYYY-MM-DD hh:mm:ss) UTC,Instrument flags,Ambient pressure (hPa),Sample flow (lpm),Bypass flow (lpm),Sample temperature (°C),Ambient temperature (°C),ASC tube jacket temperature (°C),LED temperature (°C),Box temperature (°C),Sample RH (%),Span deviation,Mass concentration (μg/m³),Mass concentration (μg/m³),Mass concentration (μg/m³)
DateTimeUTC,F1_M11,P_M11,Q1_M11,Q2_M11,T1_M11,T2_M11,T3_M11,T4_M11,T5_M11,U1_M11,ZSPAN_M11,X2_M11,X0_M11,X1_M11
2022-03-27 21:00:00,,0821.7,5.00,0.00,27.6,26.9,00.0,36.5,29.4,15.3,0000.2,0010.70,0019.47,0009.18
2022-03-27 21:01:00,,0821.7,5.00,0.00,27.6,26.9,00.0,36.5,29.4,15.4,-000.4,0010.74,0019.67,0009.23
2022-03-27 21:02:00,,0821.7,5.01,0.00,27.6,26.9,00.0,36.5,29.4,15.4,-000.8,0010.78,0019.04,0009.26
2022-03-27 21:03:00,,0821.7,4.99,0.00,27.6,26.8,00.0,36.5,29.4,15.1,-000.7,0010.84,0019.18,0009.27
2022-03-27 21:04:00,,0821.7,5.00,0.00,27.6,26.8,00.0,36.5,29.4,15.2,0000.0,0010.85,0019.99,0009.30
2022-03-27 21:05:00,,0821.6,5.02,0.00,27.6,26.7,00.0,36.5,29.4,15.1,-000.3,0010.80,0020.90,0009.34
2022-03-27 21:06:00,,0821.7,5.00,0.00,27.6,26.7,00.0,36.5,29.4,15.1,-000.5,0010.77,0020.87,0009.37
2022-03-27 21:07:00,,0821.7,4.99,0.00,27.6,26.7,00.0,36.5,29.4,15.1,-000.5,0010.80,0021.17,0009.40
2022-03-27 21:08:00,,0821.6,4.99,0.00,27.6,26.7,00.0,36.5,29.4,15.1,-000.5,0010.77,0021.46,0009.40
2022-03-27 21:09:00,,0821.7,5.01,0.00,27.6,26.7,00.0,36.5,29.4,15.3,-000.3,0010.84,0021.61,0009.42
2022-03-27 21:10:00,,0821.7,5.00,0.00,27.6,26.8,00.0,36.5,29.5,15.4,0000.0,0010.86,0021.88,0009.45
2022-03-27 21:11:00,,0821.8,5.00,0.00,27.6,26.8,00.0,36.5,29.5,15.2,-000.1,0010.92,0022.04,0009.48
2022-03-27 21:12:00,,0821.7,4.99,0.00,27.6,26.9,00.0,36.5,29.5,15.1,0000.0,0010.96,0022.42,0009.50
2022-03-27 21:13:00,,0821.7,5.00,0.00,27.7,26.9,00.0,36.5,29.5,15.2,-000.3,0010.94,0022.87,0009.52
2022-03-27 21:14:00,,0821.7,4.99,0.00,27.7,26.9,00.0,36.5,29.5,15.2,-000.8,0010.86,0022.84,0009.55
2022-03-27 21:15:00,,0821.6,5.00,0.00,27.7,26.9,00.0,36.6,29.5,15.1,-000.6,0010.88,0022.71,0009.56
2022-03-27 21:16:00,,0821.7,5.01,0.00,27.7,26.9,00.0,36.6,29.5,15.1,-000.3,0010.88,0022.25,0009.56
2022-03-27 21:17:00,,0821.7,5.00,0.00,27.7,26.9,00.0,36.6,29.5,15.1,-000.4,0010.90,0023.11,0009.55
2022-03-27 21:18:00,,0821.7,4.99,0.00,27.7,26.9,00.0,36.6,29.5,15.2,-000.7,0010.92,0022.98,0009.55
2022-03-27 21:19:00,,0821.6,5.00,0.00,27.7,26.9,00.0,36.6,29.6,15.1,-000.8,0010.97,0023.00,0009.60
2022-03-27 21:20:00,,0821.5,5.00,0.00,27.7,26.9,00.0,36.6,29.6,15.2,-001.0,0010.99,0024.57,0009.64
2022-03-27 21:21:00,,0821.5,4.99,0.00,27.7,27.0,00.0,36.6,29.6,15.1,-001.0,0010.99,0024.55,0009.65
2022-03-27 21:22:00,,0821.5,5.02,0.00,27.7,27.0,00.0,36.6,29.6,15.1,-001.0,0011.03,0024.43,0009.66
2022-03-27 21:23:00,,0821.6,5.00,0.00,27.7,27.0,00.0,36.6,29.6,15.1,-000.9,0011.03,0023.37,0009.68
2022-03-27 21:24:00,,0821.5,5.00,0.00,27.8,27.0,00.0,36.6,29.6,15.1,-000.8,0011.03,0023.23,0009.68
2022-03-27 21:25:00,,0821.5,4.99,0.00,27.8,27.0,00.0,36.6,29.6,15.1,-000.2,0011.09,0023.33,0009.69
2022-03-27 21:26:00,,0821.4,4.99,0.00,27.8,27.1,00.0,36.7,29.6,15.1,0000.1,0011.11,0024.29,0009.69
2022-03-27 21:27:00,,0821.4,5.00,0.00,27.8,27.1,00.0,36.7,29.7,15.2,0000.1,0011.15,0024.54,0009.71
2022-03-27 21:28:00,,0821.5,5.02,0.00,27.8,27.1,00.0,36.7,29.7,15.2,-000.0,0011.16,0024.47,0009.72
2022-03-27 21:29:00,,0821.6,5.00,0.00,27.8,27.1,00.0,36.7,29.7,15.1,-000.1,0011.18,0025.75,0009.73
2022-03-27 21:30:00,,0821.5,4.99,0.00,27.8,27.1,00.0,36.7,29.7,15.1,-000.1,0011.18,0026.14,0009.74
2022-03-27 21:31:00,,0821.5,4.99,0.00,27.8,27.1,00.0,36.7,29.7,15.2,-000.5,0011.15,0025.08,0009.74
2022-03-27 21:32:00,,0821.4,5.00,0.00,27.8,27.2,00.0,36.7,29.7,15.2,-000.5,0011.18,0022.73,0009.74
2022-03-27 21:33:00,,0821.4,5.00,0.00,27.9,27.2,00.0,36.7,29.7,15.1,-000.3,0011.22,0022.69,0009.78
2022-03-27 21:34:00,,0821.4,4.99,0.00,27.9,27.1,00.0,36.7,29.7,15.3,-000.3,0011.24,0022.70,0009.81
2022-03-27 21:35:00,,0821.4,5.01,0.00,27.9,27.2,00.0,36.8,29.7,15.3,-000.2,0011.26,0022.58,0009.82
2022-03-27 21:36:00,,0821.4,5.02,0.00,27.9,27.2,00.0,36.8,29.7,15.4,-000.5,0011.28,0022.93,0009.83
2022-03-27 21:37:00,,0821.4,5.00,0.00,27.9,27.2,00.0,36.8,29.8,15.2,-001.2,0011.34,0022.68,0009.87
2022-03-27 21:38:00,,0821.4,4.99,0.00,27.9,27.2,00.0,36.8,29.8,15.1,-001.4,0011.41,0022.05,0009.90
2022-03-27 21:39:00,,0821.4,5.00,0.00,27.9,27.2,00.0,36.8,29.8,15.0,-001.1,0011.42,0021.98,0009.91
2022-03-27 21:40:00,,0821.4,5.01,0.00,27.9,27.2,00.0,36.8,29.8,15.1,-001.1,0011.45,0021.12,0009.94
2022-03-27 21:41:00,,0821.4,5.01,0.00,27.9,27.2,00.0,36.8,29.8,15.4,-000.7,0011.45,0020.61,0009.96
2022-03-27 21:42:00,,0821.4,5.00,0.00,27.9,27.2,00.0,36.8,29.8,15.1,-000.5,0011.44,0020.54,0009.96
2022-03-27 21:43:00,,0821.4,4.99,0.00,28.0,27.2,00.0,36.8,29.8,15.0,-000.4,0011.45,0020.75,0009.97
2022-03-27 21:44:00,,0821.4,4.99,0.00,28.0,27.2,00.0,36.8,29.8,15.0,-000.5,0011.39,0021.14,0009.96
2022-03-27 21:45:00,,0821.4,5.02,0.00,28.0,27.2,00.0,36.8,29.8,15.0,-000.7,0011.46,0021.40,0009.99
2022-03-27 21:46:00,,0821.4,5.00,0.00,28.0,27.2,00.0,36.8,29.8,14.8,-000.8,0011.52,0022.25,0010.03
2022-03-27 21:47:00,,0821.4,4.99,0.00,28.0,27.3,00.0,36.8,29.8,14.6,-000.6,0011.52,0022.07,0010.07
2022-03-27 21:48:00,,0821.4,5.00,0.00,28.0,27.3,00.0,36.9,29.8,14.8,-000.6,0011.57,0021.78,0010.10
2022-03-27 21:49:00,,0821.3,5.01,0.00,28.0,27.3,00.0,36.9,29.8,15.1,-000.6,0011.61,0021.41,0010.12
2022-03-27 21:50:00,,0821.4,5.00,0.00,28.0,27.3,00.0,36.9,29.8,14.9,-000.8,0011.61,0020.30,0010.14
2022-03-27 21:51:00,,0821.4,5.00,0.00,28.0,27.3,00.0,36.9,29.8,14.8,-000.7,0011.69,0021.57,0010.16
2022-03-27 21:52:00,,0821.3,4.99,0.00,28.1,27.3,00.0,36.9,29.9,14.9,-000.8,0011.74,0021.91,0010.19
2022-03-27 21:53:00,,0821.3,5.01,0.00,28.1,27.4,00.0,36.9,29.9,14.9,-001.1,0011.80,0022.21,0010.21
2022-03-27 21:54:00,,0821.3,4.99,0.00,28.1,27.4,00.0,36.9,29.9,14.9,-001.3,0011.78,0022.49,0010.22
2022-03-27 21:55:00,,0821.3,5.01,0.00,28.1,27.4,00.0,36.9,30.0,14.9,-001.8,0011.83,0022.24,0010.24
2022-03-27 21:56:00,,0821.3,5.01,0.00,28.1,27.4,00.0,36.9,30.0,15.1,-001.5,0011.79,0023.24,0010.23
2022-03-27 21:57:00,,0821.3,5.00,0.00,28.1,27.4,00.0,37.0,29.9,15.2,-001.8,0011.78,0022.91,0010.23
2022-03-27 21:58:00,,0821.4,5.01,0.00,28.2,27.4,00.0,37.0,30.0,15.3,-001.6,0011.77,0023.27,0010.21
2022-03-27 21:59:00,,0821.4,5.00,0.00,28.2,27.4,00.0,37.0,30.0,15.1,-001.5,0011.70,0023.81,0010.19
